Location: Gleizolles
(44.4833°N, 6.7667°E)
Time: 21:15:34
(UTC+00:00)

Tiros 1 despin weight - Pass Details

Date: 27 June 2024
Orbit: 576 x 620 km, 48.2° (Epoch: 19 July)

Event Time Altitude Azimuth Distance (km) Brightness Sun altitude
Rises 15:29:34 0° 291° (WNW) 2,897 ? 38.4°
Reaches altitude 10° 15:31:58 10° 285° (WNW) 1,987 ? 38.0°
Maximum altitude 15:36:17 43° 214° (SW) 871 ? 37.2°
Drops below altitude 10° 15:40:34 10° 143° (SE) 1,963 ? 36.4°
Sets 15:42:55 0° 136° (SE) 2,858 ? 36.0°
